• In Belarus
  • List of Countries
  • For 7 days
  • Water Temperature
  • Satellite Maps
  • Weather Map
  • Weather Widgets
  • user-avatar
    Login

    Hourly Weather Kussnacht

    Today, 12 December, Tuesday

    Time Temperature Precipitation Wind Pressure Humidity
    00:00 +4°C° 1.2 mm 2 mps 704 mmHg 92%
    01:00 +4°C° 0 mm 2 mps 705 mmHg 90%
    02:00 +3°C° 0.6 mm 3 mps 706 mmHg 91%
    03:00 +3°C° 0.6 mm 3 mps 707 mmHg 91%
    04:00 +2°C° 0.6 mm 3 mps 708 mmHg 91%
    05:00 +2°C° 0.4 mm 3 mps 710 mmHg 92%
    06:00 +1°C° 0.4 mm 3 mps 711 mmHg 93%
    07:00 +1°C° 0.4 mm 2 mps 712 mmHg 94%
    08:00 +2°C° 0.3 mm 2 mps 713 mmHg 93%
    09:00 +2°C° 0.3 mm 2 mps 714 mmHg 93%
    10:00 +2°C° 0.3 mm 2 mps 715 mmHg 93%
    11:00 +2°C° 0.3 mm 2 mps 715 mmHg 91%
    12:00 +3°C° 0.3 mm 2 mps 716 mmHg 90%
    13:00 +3°C° 0.3 mm 2 mps 717 mmHg 89%
    14:00 +3°C° 0.3 mm 2 mps 717 mmHg 90%
    15:00 +2°C° 0.3 mm 2 mps 718 mmHg 91%
    16:00 +3°C° 0.3 mm 1 mps 718 mmHg 93%
    17:00 +2°C° 0.2 mm 1 mps 719 mmHg 93%
    18:00 +1°C° 0.2 mm 1 mps 719 mmHg 94%
    19:00 0°C° 0.2 mm 1 mps 720 mmHg 94%
    20:00 0°C° 0 mm 1 mps 721 mmHg 94%
    21:00 0°C° 0 mm 1 mps 722 mmHg 94%
    22:00 -1°C° 0 mm 1 mps 722 mmHg 94%
    23:00 -3°C° 0 mm 2 mps 723 mmHg 93%

    Tomorrow, 13 December, Wednesday

    Time Temperature Precipitation Wind Pressure Humidity
    00:00 -4°C° 0 mm 2 mps 723 mmHg 92%
    01:00 -5°C° 0 mm 2 mps 723 mmHg 91%
    02:00 -5°C° 0 mm 2 mps 723 mmHg 87%
    03:00 -5°C° 0 mm 2 mps 724 mmHg 84%
    04:00 -6°C° 0 mm 2 mps 724 mmHg 81%
    05:00 -6°C° 0 mm 2 mps 724 mmHg 79%
    06:00 -6°C° 0 mm 2 mps 724 mmHg 77%
    07:00 -6°C° 0 mm 2 mps 724 mmHg 75%
    08:00 -4°C° 0 mm 2 mps 724 mmHg 73%
    09:00 -3°C° 0 mm 2 mps 723 mmHg 70%
    10:00 -2°C° 0 mm 2 mps 723 mmHg 68%
    11:00 +1°C° 0 mm 2 mps 722 mmHg 67%
    12:00 +3°C° 0 mm 2 mps 721 mmHg 66%
    13:00 +5°C° 0 mm 2 mps 720 mmHg 65%
    14:00 +5°C° 0.2 mm 2 mps 720 mmHg 69%
    15:00 +4°C° 0.2 mm 2 mps 719 mmHg 73%
    16:00 +4°C° 0.2 mm 2 mps 719 mmHg 77%
    17:00 +4°C° 0.6 mm 2 mps 719 mmHg 79%
    18:00 +4°C° 0.6 mm 2 mps 719 mmHg 80%
    19:00 +3°C° 0.6 mm 2 mps 718 mmHg 82%
    20:00 +4°C° 0.4 mm 2 mps 718 mmHg 82%
    21:00 +3°C° 0.4 mm 3 mps 717 mmHg 82%
    22:00 +3°C° 0.4 mm 3 mps 717 mmHg 82%
    23:00 +3°C° 0.7 mm 3 mps 716 mmHg 82%

    Day after tomorrow, 14 December, Thursday

    Time Temperature Precipitation Wind Pressure Humidity
    00:00 +3°C° 0.7 mm 3 mps 716 mmHg 83%
    01:00 +4°C° 0.7 mm 3 mps 716 mmHg 84%
    02:00 +4°C° 0.3 mm 3 mps 715 mmHg 85%
    03:00 +4°C° 0.3 mm 4 mps 715 mmHg 87%
    04:00 +4°C° 0.3 mm 4 mps 715 mmHg 88%
    05:00 +5°C° 0.5 mm 4 mps 715 mmHg 89%
    06:00 +5°C° 0.5 mm 4 mps 715 mmHg 90%
    07:00 +5°C° 0.5 mm 3 mps 715 mmHg 92%
    08:00 +5°C° 0.4 mm 3 mps 715 mmHg 92%
    09:00 +5°C° 0.4 mm 3 mps 715 mmHg 93%
    10:00 +6°C° 0.4 mm 2 mps 715 mmHg 94%
    11:00 +5°C° 0.5 mm 3 mps 714 mmHg 93%
    12:00 +5°C° 0.5 mm 3 mps 714 mmHg 92%
    13:00 +7°C° 0.5 mm 3 mps 713 mmHg 91%
    14:00 +5°C° 0.2 mm 3 mps 713 mmHg 91%
    15:00 +5°C° 0.2 mm 3 mps 712 mmHg 91%
    16:00 +5°C° 0.2 mm 3 mps 711 mmHg 91%
    17:00 +5°C° 0.3 mm 3 mps 711 mmHg 90%
    18:00 +5°C° 0.3 mm 3 mps 710 mmHg 88%
    19:00 +4°C° 0.3 mm 4 mps 710 mmHg 87%
    20:00 +4°C° 0.8 mm 4 mps 710 mmHg 86%
    21:00 +3°C° 0.8 mm 5 mps 710 mmHg 85%
    22:00 +3°C° 0.8 mm 5 mps 710 mmHg 84%
    23:00 +4°C° 2 mm 4 mps 710 mmHg 87%

    15 December, Friday

    Time Temperature Precipitation Wind Pressure Humidity
    00:00 +3°C° 2 mm 4 mps 710 mmHg 90%
    01:00 +3°C° 2 mm 3 mps 710 mmHg 93%
    02:00 +3°C° 1.4 mm 3 mps 710 mmHg 93%
    03:00 +3°C° 1.4 mm 2 mps 710 mmHg 94%
    04:00 +3°C° 1.4 mm 2 mps 710 mmHg 94%
    05:00 +3°C° 0.7 mm 2 mps 710 mmHg 93%
    06:00 +2°C° 0.7 mm 2 mps 710 mmHg 92%
    07:00 +1°C° 0.7 mm 3 mps 711 mmHg 91%
    08:00 +1°C° 0.1 mm 3 mps 711 mmHg 90%
    09:00 +1°C° 0.1 mm 3 mps 711 mmHg 88%
    10:00 +1°C° 0.1 mm 3 mps 711 mmHg 87%
    11:00 +2°C° 0 mm 3 mps 711 mmHg 85%
    12:00 +2°C° 0 mm 3 mps 710 mmHg 82%
    13:00 +3°C° 0 mm 3 mps 710 mmHg 80%
    14:00 +2°C° 0.2 mm 3 mps 710 mmHg 82%
    15:00 +2°C° 0.2 mm 3 mps 710 mmHg 85%
    16:00 +1°C° 0.2 mm 3 mps 711 mmHg 88%
    17:00 +1°C° 0.3 mm 3 mps 711 mmHg 89%
    18:00 0°C° 0.3 mm 3 mps 712 mmHg 91%
    19:00 0°C° 0.3 mm 3 mps 712 mmHg 93%
    20:00 0°C° 0.3 mm 3 mps 713 mmHg 92%
    21:00 -1°C° 0.3 mm 3 mps 713 mmHg 92%
    22:00 -1°C° 0.3 mm 3 mps 713 mmHg 92%
    23:00 -1°C° 0.6 mm 3 mps 714 mmHg 92%

    16 December, Saturday

    Time Temperature Precipitation Wind Pressure Humidity
    00:00 -1°C° 0.6 mm 3 mps 714 mmHg 92%
    01:00 -1°C° 0.6 mm 3 mps 715 mmHg 93%
    02:00 -1°C° 0.4 mm 3 mps 715 mmHg 93%
    03:00 -1°C° 0.4 mm 3 mps 716 mmHg 93%
    04:00 -1°C° 0.4 mm 3 mps 717 mmHg 93%
    05:00 -1°C° 0.2 mm 3 mps 717 mmHg 93%
    06:00 -2°C° 0.2 mm 3 mps 718 mmHg 93%
    07:00 -2°C° 0.2 mm 3 mps 718 mmHg 93%
    08:00 -2°C° 0.1 mm 3 mps 719 mmHg 91%
    09:00 -2°C° 0.1 mm 2 mps 719 mmHg 89%
    10:00 -2°C° 0.1 mm 2 mps 720 mmHg 87%
    11:00 -1°C° 0 mm 2 mps 720 mmHg 84%
    12:00 +1°C° 0 mm 2 mps 720 mmHg 80%
    13:00 +2°C° 0 mm 2 mps 720 mmHg 77%
    14:00 +1°C° 0 mm 2 mps 720 mmHg 80%
    15:00 -1°C° 0 mm 2 mps 720 mmHg 82%
    16:00 -2°C° 0 mm 2 mps 720 mmHg 84%
    17:00 -2°C° 0 mm 2 mps 720 mmHg 83%
    18:00 -3°C° 0 mm 2 mps 721 mmHg 81%
    19:00 -4°C° 0 mm 2 mps 721 mmHg 80%
    20:00 -4°C° 0.1 mm 2 mps 722 mmHg 81%
    21:00 -4°C° 0.1 mm 2 mps 722 mmHg 81%
    22:00 -4°C° 0.1 mm 2 mps 722 mmHg 82%
    23:00 -3°C° 0.2 mm 2 mps 722 mmHg 84%

    17 December, Sunday

    Time Temperature Precipitation Wind Pressure Humidity
    00:00 -3°C° 0.2 mm 2 mps 722 mmHg 86%
    01:00 -3°C° 0.2 mm 2 mps 722 mmHg 88%
    02:00 -3°C° 0.1 mm 2 mps 723 mmHg 89%
    03:00 -3°C° 0.1 mm 2 mps 723 mmHg 89%
    04:00 -3°C° 0.1 mm 2 mps 723 mmHg 90%
    05:00 -3°C° 0.3 mm 2 mps 724 mmHg 91%
    06:00 -3°C° 0.3 mm 2 mps 724 mmHg 92%
    07:00 -3°C° 0.3 mm 2 mps 724 mmHg 93%
    08:00 0°C° 0.2 mm 1 mps 725 mmHg 93%
    09:00 0°C° 0.2 mm 1 mps 725 mmHg 92%
    10:00 0°C° 0.2 mm 1 mps 726 mmHg 92%
    11:00 +1°C° 0.1 mm 1 mps 726 mmHg 90%
    12:00 +2°C° 0.1 mm 1 mps 725 mmHg 89%
    13:00 +2°C° 0.1 mm 1 mps 725 mmHg 87%
    14:00 +1°C° 0 mm 1 mps 726 mmHg 88%
    15:00 +1°C° 0 mm 1 mps 726 mmHg 89%
    16:00 0°C° 0 mm 1 mps 726 mmHg 91%
    17:00 -1°C° 0 mm 1 mps 727 mmHg 91%
    18:00 -2°C° 0 mm 1 mps 727 mmHg 91%
    19:00 -4°C° 0 mm 1 mps 728 mmHg 91%
    20:00 -4°C° 0 mm 1 mps 728 mmHg 89%
    21:00 -4°C° 0 mm 1 mps 729 mmHg 87%
    22:00 -6°C° 0 mm 1 mps 729 mmHg 85%
    23:00 -6°C° 0 mm 1 mps 729 mmHg 82%
    Show more